Temperature
14 14 14 15 15 15 15 16 17 18 18 16 16 15 15 15 16 16 16 17 17 17 17 17 17 17 17 17 16 16 16 16 16 16 16 16 16 16
13 13 14 14 14 14 15 15 15 16 18 17 15 15 14 15 15 16 16 16 17 17 17 17 17 17 17 16 16 16 16 16 16 16 15 15 15 15
12 12 13 13 14 14 14 14 14 15 16 16 15 14 14 14 15 15 15 16 16 16 16 17 17 16 16 16 16 16 16 15 15 15 15 15 15 15
11 11 12 12 13 13 13 14 14 14 15 15 15 14 14 14 14 14 15 15 15 16 16 16 16 16 16 16 15 15 15 15 15 15 14 14 14 14
10 10 11 11 12 12 13 13 13 14 14 14 14 14 14 14 14 14 14 14 14 14 15 15 15 15 15 15 15 15 15 15 14 14 14 14 14 14
10 10 10 10 11 11 12 13 13 13 13 14 14 14 14 13 13 13 13 13 13 13 13 13 14 14 14 14 14 14 14 14 14 14 13 13 13 14
9 9 10 10 10 11 11 11 12 13 13 13 14 14 14 13 13 12 12 12 12 12 12 12 12 12 13 13 13 13 13 13 13 13 13 13 13 13
9 9 9 9 10 10 10 11 11 12 12 13 13 14 14 13 13 12 12 12 11 11 12 12 11 11 11 12 12 12 12 12 12 12 12 13 13 13
9 9 9 10 9 9 10 10 10 11 11 12 13 13 13 13 13 12 12 12 12 11 11 11 11 11 11 11 11 11 12 12 12 12 12 12 12 12
9 9 9 9 9 9 9 10 10 10 11 11 12 12 13 13 13 13 12 12 11 11 11 10 10 10 10 10 10 10 11 11 11 11 11 12 12 12
8 9 9 9 9 9 9 9 10 10 10 11 11 12 12 12 12 12 12 11 11 10 10 10 9 9 9 9 9 9 10 10 10 10 11 11 11 11
8 8 8 9 9 9 9 9 9 10 10 10 11 11 12 12 12 12 12 11 11 9 9 10 9 9 7 7 8 8 8 9 9 9 9 9 9 9
9 9 9 9 9 9 9 9 9 9 10 10 11 11 11 11 12 12 12 12 12 11 11 10 9 9 9 7 7 7 7 8 8 8 8 8 8 8
8 9 9 9 9 9 9 9 9 9 9 10 10 11 11 11 11 11 11 11 11 12 12 11 10 10 9 8 7 7 7 7 7 7 7 8 8 8
8 8 8 8 8 8 9 9 9 9 9 10 10 11 11 11 11 11 11 11 11 10 11 10 10 10 10 10 8 8 7 7 7 7 7 7 7 7
7 7 8 8 8 8 8 9 9 9 10 10 10 11 11 11 11 11 10 10 10 9 9 9 9 10 10 10 9 8 8 7 7 7 7 7 7 7
7 7 8 8 8 8 9 9 9 9 9 10 10 10 10 10 10 10 10 10 9 9 8 8 8 9 10 10 9 8 8 8 8 7 7 8 7 7
7 7 8 8 9 9 9 9 9 9 9 10 10 10 10 10 10 10 10 9 9 9 8 8 9 9 9 9 9 9 9 8 8 7 8 8 8 8
7 8 8 8 9 9 9 9 9 9 9 9 10 10 10 10 10 9 9 9 9 9 9 9 9 9 10 9 9 9 9 9 8 8 8 9 9 9
7 7 8 8 9 9 9 9 9 9 9 9 9 10 10 10 9 9 9 9 9 10 9 9 10 10 11 11 10 9 9 9 9 9 9 9 10 9
7 8 8 8 9 9 8 8 8 9 9 9 9 9 9 9 9 9 9 9 10 10 10 10 10 11 11 11 11 10 9 9 9 9 10 10 10 9
7 8 8 8 8 8 8 8 8 8 8 9 9 9 9 9 9 9 9 9 10 10 11 11 10 11 11 11 11 11 10 9 9 9 9 10 11 11
7 8 8 8 8 8 8 8 8 8 8 8 9 9 9 9 9 9 9 10 10 11 11 11 10 11 11 11 12 11 10 9 9 9 9 9 10 10
Wind_Speed
12 13 12 11 10 10 9 9 8 7 6 6 5 5 2 2 2 2 2 5 1 4 8 10 12 14 17 19 19 19 18 18 17 17 17 17 17 17
9 11 12 12 11 11 10 10 9 9 6 5 5 4 2 1 4 3 4 6 7 4 4 6 8 10 12 14 14 14 14 13 13 12 12 12 11 11
9 11 12 13 11 11 11 11 10 10 9 6 6 4 3 3 4 4 5 5 8 10 9 9 11 12 13 14 14 14 14 14 13 12 11 11 10 8
10 9 10 10 13 12 11 13 11 11 10 9 7 6 6 6 6 5 5 7 9 13 14 14 15 15 16 16 16 16 16 15 15 14 14 14 14 13
12 12 11 9 11 10 11 12 11 11 11 9 8 6 6 7 7 7 8 7 9 12 16 16 18 18 18 19 19 19 19 19 19 19 19 19 18 18
13 12 11 10 10 9 9 10 10 11 11 10 9 8 8 9 8 7 6 6 7 8 12 14 18 19 19 19 19 20 21 22 22 22 23 22 22 21
14 13 13 12 11 8 7 8 8 9 10 11 10 9 9 10 9 7 8 7 6 5 8 8 9 10 12 16 17 19 21 22 23 23 24 23 23 23
15 14 13 13 13 13 12 9 9 10 10 10 10 11 11 11 10 10 10 9 5 4 6 7 7 8 8 11 16 20 22 22 23 23 24 24 23 23
15 13 12 12 14 13 13 12 11 12 11 9 10 11 11 11 13 14 13 11 7 8 8 7 6 9 9 14 17 20 22 23 23 23 23 23 23 22
15 14 14 12 12 12 12 11 11 12 13 11 11 11 9 9 14 14 13 10 11 7 5 6 6 8 10 12 16 19 21 22 23 23 23 23 23 22
15 15 14 14 12 11 11 11 11 10 12 13 12 9 6 6 10 12 14 13 9 5 3 5 8 9 9 9 12 16 19 21 22 22 23 24 24 21
12 13 13 12 10 13 12 12 11 11 10 12 12 10 9 10 14 16 16 15 11 5 5 6 11 7 6 6 8 12 14 16 18 18 18 17 11 9
11 11 11 14 11 12 12 11 9 8 10 11 11 11 11 11 14 14 15 16 15 7 11 9 11 7 6 8 7 9 12 13 13 11 9 5 4 3
10 9 7 14 13 12 11 10 7 7 9 10 10 11 11 12 11 12 11 9 6 10 17 13 10 9 10 11 9 10 11 12 12 10 10 8 5 9
8 3 4 11 11 11 12 11 10 10 10 11 11 11 10 12 12 10 10 10 9 13 16 13 12 11 12 10 11 11 11 11 11 10 10 9 8 8
11 8 9 9 9 8 9 11 11 11 11 11 10 9 9 11 12 12 12 13 12 10 10 14 13 14 11 13 13 12 11 11 11 10 10 9 10 9
10 10 11 11 11 12 11 10 10 10 11 11 10 10 11 11 12 13 14 14 12 13 13 12 12 11 10 12 13 13 12 11 12 11 10 9 9 9
7 10 10 11 11 11 11 10 10 10 10 10 10 11 12 13 13 14 14 15 16 16 15 15 14 12 11 9 10 13 12 12 12 12 10 10 10 10
9 10 10 10 10 10 9 9 9 8 8 9 11 12 13 14 15 16 15 15 15 16 17 16 16 15 15 13 10 10 11 11 12 13 11 9 9 10
10 9 9 9 9 8 8 8 7 7 8 9 11 13 14 15 16 16 16 17 17 18 17 16 16 14 13 12 11 12 12 12 12 12 12 10 7 6
8 8 8 8 8 7 7 7 7 7 8 9 11 13 15 16 17 17 16 18 18 18 18 16 13 12 9 8 12 13 12 9 5 9 11 11 10 9
6 6 6 6 5 6 6 7 7 7 9 9 11 13 15 16 17 18 17 18 17 17 17 14 13 12 10 10 11 13 13 12 7 1 3 5 8 10
4 5 5 5 5 5 6 7 8 8 9 10 11 13 15 16 16 16 17 17 16 15 15 14 14 12 11 10 10 11 15 14 12 11 11 11 6 3
Wind_Direction
253 242 237 238 234 232 230 232 237 235 209 182 193 154 164 108 31 355 31 67 76 214 214 214 213 212 209 205 204 203 203 202 202 203 204 209 217 223
265 259 246 240 234 228 225 225 231 245 243 178 181 159 118 133 92 71 77 91 74 90 147 172 180 184 185 184 183 181 180 179 180 180 184 189 197 209
261 260 253 248 241 231 224 221 220 225 231 212 188 170 177 175 128 104 83 78 81 80 96 113 127 135 142 145 147 149 151 153 157 160 163 162 159 160
247 253 257 251 243 239 231 223 218 217 222 221 200 192 183 163 137 118 99 82 82 82 89 96 104 111 116 120 123 125 127 129 128 128 127 124 120 114
239 240 245 247 247 240 237 231 222 214 218 218 207 192 176 155 138 117 103 96 90 91 89 91 96 100 104 108 111 113 113 113 111 108 105 102 100 99
236 236 235 235 240 242 239 239 232 220 212 215 207 192 181 166 157 146 130 112 97 90 86 91 94 94 98 103 106 108 108 107 105 103 101 99 97 96
232 231 230 224 227 232 238 240 240 226 214 212 210 201 188 174 173 163 144 123 96 107 107 100 101 99 99 101 105 109 108 107 106 104 102 100 98 96
232 230 227 215 215 218 228 235 241 236 222 216 216 210 199 188 175 161 151 149 133 130 113 98 101 103 103 102 108 111 111 110 109 107 105 102 99 96
230 228 229 218 203 213 213 220 233 241 243 236 234 230 209 193 177 171 172 170 146 146 124 100 96 95 95 101 110 112 113 113 111 109 106 104 101 98
229 227 227 229 211 208 209 209 216 222 225 229 239 243 235 201 186 178 160 124 114 123 119 110 108 103 103 105 106 112 115 115 114 112 111 108 104 100
227 226 223 223 204 193 216 217 216 219 220 223 234 255 271 203 176 160 148 143 136 130 115 118 127 111 103 109 108 111 116 118 120 120 121 120 118 110
221 224 222 227 195 187 216 222 222 219 211 209 217 227 224 188 172 175 167 161 150 143 156 134 146 134 118 123 133 134 125 122 126 131 135 139 146 129
222 218 213 190 199 198 220 230 228 225 215 211 208 209 205 195 187 185 178 172 167 159 162 150 158 149 134 145 154 157 151 149 146 145 151 145 42 100
234 233 204 171 186 197 215 229 220 223 227 216 210 204 197 189 186 181 173 167 163 157 161 157 157 157 145 148 156 166 168 170 167 164 158 149 105 76
242 251 136 159 183 204 217 219 218 224 225 219 215 204 192 178 167 153 136 118 108 131 148 148 146 152 154 155 158 166 172 176 178 173 168 171 165 157
236 211 182 188 223 242 212 211 223 227 223 221 212 195 174 166 162 152 145 137 130 132 141 150 156 159 165 161 160 166 172 173 178 179 178 177 178 176
215 216 215 212 215 220 222 222 222 219 218 217 201 185 172 164 158 153 151 150 149 152 155 163 166 172 167 159 163 169 173 173 176 176 183 183 183 183
215 220 219 219 221 221 221 220 220 220 215 204 190 180 170 162 156 154 157 158 156 157 160 162 162 161 160 162 170 171 174 175 171 174 193 192 186 185
220 227 224 223 224 223 221 221 218 215 208 195 182 175 165 160 157 158 162 161 159 160 161 162 166 166 167 165 174 194 178 172 170 177 195 200 192 183
226 231 229 228 228 226 222 219 215 206 199 189 178 170 163 160 159 162 165 164 161 159 161 166 173 177 177 167 164 178 193 178 178 182 189 200 177 122
222 234 237 235 230 225 218 211 208 201 193 183 173 167 162 160 161 163 163 162 161 161 164 169 173 180 172 152 157 168 180 181 175 189 190 192 189 188
227 232 236 240 234 222 210 201 197 192 185 177 168 164 161 161 161 160 158 161 163 163 165 162 164 177 176 173 169 165 170 175 174 170 240 229 207 204
239 243 242 239 230 212 198 189 185 180 175 167 162 162 159 157 158 157 159 162 162 163 161 159 167 179 182 182 179 170 169 177 188 196 212 218 221 150
Height
1466 1468 1471 1474 1476 1477 1479 1481 1483 1482 1483 1484 1485 1484 1485 1485 1486 1487 1489 1490 1493 1495 1498 1500 1503 1506 1509 1512 1514 1517 1520 1522 1525 1528 1530 1533 1535 1537
1459 1461 1464 1467 1470 1472 1473 1475 1478 1480 1480 1481 1482 1483 1482 1483 1483 1484 1486 1487 1489 1492 1494 1496 1499 1502 1504 1507 1510 1512 1515 1518 1520 1522 1525 1527 1529 1531
1452 1453 1455 1459 1463 1465 1468 1470 1472 1474 1476 1478 1479 1479 1479 1480 1481 1482 1483 1484 1486 1488 1491 1493 1495 1498 1501 1503 1506 1509 1511 1514 1516 1518 1519 1521 1524 1526
1445 1446 1448 1451 1454 1458 1461 1464 1466 1468 1471 1474 1475 1476 1476 1477 1479 1480 1481 1482 1483 1485 1488 1490 1492 1495 1497 1500 1503 1505 1508 1510 1512 1514 1515 1517 1520 1521
1440 1440 1441 1443 1445 1449 1453 1457 1460 1462 1465 1468 1471 1473 1474 1474 1476 1477 1479 1480 1481 1483 1485 1488 1490 1492 1495 1498 1501 1503 1506 1508 1510 1512 1514 1515 1517 1518
1433 1434 1435 1436 1438 1441 1444 1449 1453 1456 1459 1462 1466 1468 1470 1471 1473 1474 1476 1479 1480 1482 1484 1486 1489 1491 1494 1497 1499 1502 1505 1507 1509 1511 1513 1515 1517 1518
1427 1428 1429 1430 1432 1434 1436 1440 1445 1449 1452 1456 1460 1463 1465 1467 1469 1471 1474 1476 1479 1482 1484 1486 1488 1491 1493 1496 1499 1502 1504 1507 1509 1511 1513 1515 1517 1518
1420 1422 1423 1424 1425 1428 1430 1432 1437 1441 1445 1450 1454 1457 1460 1462 1465 1467 1470 1473 1477 1481 1483 1486 1489 1491 1494 1496 1499 1502 1504 1507 1510 1512 1514 1515 1517 1518
1413 1415 1418 1419 1420 1422 1424 1427 1429 1433 1439 1443 1448 1451 1455 1458 1460 1463 1467 1471 1473 1477 1482 1484 1488 1490 1493 1496 1499 1502 1505 1508 1510 1512 1514 1516 1517 1519
1407 1409 1411 1414 1416 1418 1420 1422 1424 1427 1432 1437 1441 1446 1450 1453 1456 1460 1463 1467 1471 1476 1480 1482 1486 1490 1494 1497 1500 1503 1506 1508 1511 1513 1515 1516 1518 1519
1400 1403 1405 1408 1411 1413 1415 1418 1420 1422 1426 1430 1435 1440 1444 1448 1452 1455 1458 1462 1467 1472 1476 1480 1484 1489 1493 1497 1500 1504 1507 1509 1511 1513 1515 1517 1518 1519
1394 1397 1400 1403 1405 1407 1410 1413 1415 1417 1421 1425 1429 1433 1438 1442 1446 1450 1453 1457 1462 1468 1472 1476 1481 1486 1493 1497 1500 1504 1507 1509 1511 1514 1516 1517 1518 1521
1389 1392 1394 1397 1399 1402 1405 1408 1410 1413 1416 1419 1422 1427 1432 1436 1440 1445 1449 1453 1457 1461 1466 1471 1477 1483 1487 1494 1499 1503 1506 1509 1511 1514 1516 1517 1519 1521
1384 1387 1389 1391 1394 1397 1400 1402 1405 1407 1410 1412 1417 1420 1424 1430 1435 1440 1444 1449 1454 1458 1462 1467 1472 1478 1483 1489 1496 1502 1506 1509 1512 1514 1516 1518 1520 1521
1379 1382 1384 1386 1389 1392 1394 1397 1399 1401 1404 1406 1410 1413 1418 1424 1430 1435 1440 1445 1450 1455 1459 1465 1471 1476 1483 1487 1492 1498 1503 1508 1512 1514 1517 1518 1520 1522
1374 1377 1379 1382 1384 1387 1389 1391 1392 1395 1397 1401 1404 1408 1413 1419 1424 1429 1434 1440 1446 1452 1458 1465 1471 1477 1483 1487 1492 1496 1501 1505 1510 1513 1516 1519 1521 1523
1370 1373 1375 1377 1379 1382 1384 1385 1387 1389 1391 1395 1399 1403 1407 1413 1418 1424 1430 1436 1443 1449 1456 1465 1472 1478 1484 1487 1491 1495 1500 1504 1507 1511 1515 1518 1520 1522
1367 1369 1370 1372 1374 1376 1378 1379 1381 1383 1385 1389 1393 1397 1402 1408 1414 1420 1427 1433 1440 1447 1455 1462 1469 1476 1483 1488 1491 1494 1498 1502 1505 1508 1513 1517 1519 1521
1363 1364 1366 1368 1369 1371 1372 1374 1375 1377 1380 1383 1387 1392 1397 1403 1410 1417 1424 1431 1438 1446 1454 1460 1467 1473 1478 1483 1488 1493 1496 1500 1503 1506 1510 1514 1517 1519
1359 1361 1362 1363 1365 1366 1367 1368 1370 1372 1375 1378 1383 1387 1393 1399 1406 1414 1421 1429 1436 1445 1452 1459 1465 1471 1475 1480 1484 1489 1494 1498 1501 1505 1508 1512 1515 1517
1356 1357 1358 1359 1361 1362 1362 1364 1366 1368 1371 1374 1379 1384 1389 1396 1404 1412 1420 1428 1435 1443 1450 1457 1463 1470 1475 1479 1483 1487 1491 1495 1499 1502 1506 1509 1512 1514
1353 1354 1355 1355 1356 1357 1358 1360 1362 1364 1367 1371 1376 1381 1388 1395 1402 1410 1418 1426 1435 1442 1449 1456 1462 1468 1473 1477 1480 1484 1488 1492 1496 1499 1502 1506 1509 1512
1351 1351 1352 1352 1352 1352 1354 1355 1358 1361 1365 1368 1373 1380 1387 1394 1402 1410 1418 1426 1434 1441 1448 1454 1461 1466 1471 1475 1478 1482 1485 1489 1493 1496 1499 1502 1505 1507